User: anonymous   Login
Location: Peebles
(55.6412°N, 3.1714°W)
Time: 06:24:55
(UTC+00:00)
Language:

COSMOS 2251 DEB - Orbit

View from above orbital plane
View from above orbital plane
View from above satellite
View from above satellite

Ground track
Ground track

The orbit data is extracted from the following two-line orbital elements,

1 33819U 93036BL  22334.17318517  .00001099  00000-0  45146-3 0  9994
2 33819  74.1841  43.3847 0098070 215.7545 172.1305 14.25571136716641
Epoch (UTC): 30 November 2022 04:09:23
Eccentricity: 0.0098070
inclination: 74.1841°
perigee height: 736 km
apogee height: 877 km
right ascension of ascending node: 43.3847°
argument of perigee: 215.7545°
revolutions per day: 14.25571136
mean anomaly at epoch: 172.1305°
orbit number at epoch: 71664

The dashed part of the orbit path shows where the satellite is in the earth's shadow,  

DLR